| time (UTC) | temp F | wind direction | speed MPH | gust MPH | rain 1hr in | rain 24hr in | rain mn in | humidity % | barometer mb |
| 20260507083002 | 54 | 36 | 0.0 | 0.0 | 0.00 | 0.03 | 0.00 | 84 | 1018.5 |
| 20260507082458 | 55 | 36 | 0.0 | 0.0 | 0.00 | 0.03 | 0.00 | 84 | 1018.6 |
| 20260507081958 | 55 | 36 | 0.0 | 1.0 | 0.00 | 0.03 | 0.00 | 83 | 1018.4 |
| 20260507081502 | 55 | 36 | 0.0 | 1.0 | 0.00 | 0.03 | 0.00 | 84 | 1018.4 |
| 20260507080958 | 55 | 38 | 0.0 | 0.0 | 0.00 | 0.03 | 0.00 | 84 | 1018.4 |
| 20260507080459 | 55 | 37 | 0.0 | 0.0 | 0.00 | 0.03 | 0.00 | 83 | 1018.4 |
| 20260507080005 | 55 | 37 | 0.0 | 1.0 | 0.00 | 0.03 | 0.00 | 83 | 1018.3 |
| 20260507075459 | 55 | 38 | 0.0 | 1.0 | 0.00 | 0.03 | 0.00 | 83 | 1018.3 |
| 20260507074959 | 55 | 38 | 0.0 | 1.0 | 0.00 | 0.03 | 0.00 | 83 | 1018.3 |
| 20260507074502 | 55 | 37 | 0.0 | 0.0 | 0.00 | 0.03 | 0.00 | 83 | 1018.2 |
| 20260507073958 | 55 | 37 | 0.0 | 0.0 | 0.00 | 0.03 | 0.00 | 84 | 1018.2 |
| 20260507073001 | 55 | 38 | 0.0 | 0.0 | 0.00 | 0.03 | 0.00 | 83 | 1017.9 |
| 20260507072500 | 55 | 37 | 0.0 | 0.0 | 0.00 | 0.03 | 0.00 | 83 | 1018.1 |
| 20260507071958 | 55 | 38 | 0.0 | 2.0 | 0.00 | 0.03 | 0.00 | 82 | 1018.2 |
| 20260507071000 | 55 | 37 | 0.0 | 0.0 | 0.00 | 0.03 | 0.00 | 81 | 1018.2 |
| 20260507070458 | 56 | 37 | 0.0 | 0.0 | 0.00 | 0.03 | 0.00 | 81 | 1018.3 |
| 20260507065458 | 56 | 38 | 0.0 | 1.0 | 0.00 | 0.03 | 0.00 | 80 | 1018.3 |
| 20260507064957 | 56 | 37 | 0.0 | 1.0 | 0.00 | 0.03 | 0.00 | 79 | 1018.2 |
| 20260507064501 | 57 | 38 | 0.0 | 1.0 | 0.00 | 0.03 | 0.00 | 79 | 1018.3 |
| 20260507063958 | 57 | 38 | 0.0 | 2.0 | 0.00 | 0.03 | 0.00 | 79 | 1018.3 |
| 20260507063457 | 57 | 46 | 0.0 | 2.0 | 0.00 | 0.03 | 0.00 | 78 | 1018.2 |
| 20260507062458 | 57 | 47 | 0.0 | 2.0 | 0.00 | 0.03 | 0.00 | 78 | 1018.1 |
| 20260507061957 | 57 | 51 | 0.0 | 1.0 | 0.00 | 0.03 | 0.00 | 78 | 1018.0 |
| 20260507061501 | 57 | 51 | 0.0 | 2.0 | 0.00 | 0.03 | 0.00 | 78 | 1018.0 |
| 20260507060957 | 57 | 51 | 0.0 | 0.0 | 0.00 | 0.03 | 0.00 | 78 | 1017.8 |
| 20260507060457 | 57 | 51 | 0.0 | 0.0 | 0.00 | 0.03 | 0.00 | 78 | 1017.9 |
| 20260507060010 | 57 | 51 | 0.0 | 0.0 | 0.00 | 0.03 | 0.00 | 78 | 1017.9 |
| 20260507055504 | 57 | 51 | 0.0 | 0.0 | 0.00 | 0.03 | 0.00 | 78 | 1017.8 |
| 20260507055004 | 57 | 51 | 0.0 | 3.0 | 0.00 | 0.03 | 0.00 | 77 | 1017.6 |
| 20260507054509 | 57 | 51 | 0.0 | 3.0 | 0.00 | 0.03 | 0.00 | 77 | 1017.6 |
| 20260507054003 | 57 | 53 | 1.0 | 3.0 | 0.00 | 0.03 | 0.00 | 77 | 1017.6 |
| 20260507053503 | 57 | 53 | 0.0 | 3.0 | 0.00 | 0.03 | 0.00 | 76 | 1017.5 |
| 20260507053007 | 57 | 51 | 0.0 | 3.0 | 0.00 | 0.03 | 0.00 | 76 | 1017.4 |
| 20260507052503 | 58 | 68 | 0.0 | 3.0 | 0.00 | 0.03 | 0.00 | 76 | 1017.5 |
| 20260507052004 | 58 | 60 | 0.0 | 3.0 | 0.00 | 0.03 | 0.00 | 76 | 1017.5 |
| 20260507051508 | 58 | 57 | 0.0 | 6.0 | 0.00 | 0.03 | 0.00 | 75 | 1017.6 |
| 20260507051004 | 58 | 46 | 0.0 | 6.0 | 0.00 | 0.03 | 0.00 | 75 | 1017.6 |
| 20260507050504 | 58 | 48 | 0.0 | 4.0 | 0.00 | 0.03 | 0.00 | 75 | 1017.6 |
| 20260507050011 | 58 | 52 | 0.0 | 4.0 | 0.00 | 0.03 | 0.00 | 75 | 1017.6 |
| 20260507045504 | 58 | 76 | 0.0 | 2.0 | 0.00 | 0.03 | 0.03 | 75 | 1017.7 |
| 20260507045004 | 58 | 76 | 0.0 | 1.0 | 0.00 | 0.03 | 0.03 | 75 | 1017.7 |
| 20260507044507 | 58 | 75 | 0.0 | 3.0 | 0.00 | 0.03 | 0.03 | 74 | 1017.8 |
| 20260507044003 | 58 | 78 | 0.0 | 3.0 | 0.00 | 0.03 | 0.03 | 74 | 1017.8 |
| 20260507043504 | 58 | 71 | 0.0 | 3.0 | 0.00 | 0.03 | 0.03 | 74 | 1017.9 |
| 20260507043006 | 59 | 65 | 0.0 | 4.0 | 0.00 | 0.03 | 0.03 | 73 | 1017.9 |
| 20260507042503 | 59 | 65 | 0.0 | 4.0 | 0.00 | 0.03 | 0.03 | 73 | 1017.9 |
| 20260507042003 | 59 | 51 | 0.0 | 7.0 | 0.00 | 0.03 | 0.03 | 73 | 1017.9 |
| 20260507041506 | 59 | 134 | 0.0 | 7.0 | 0.00 | 0.03 | 0.03 | 73 | 1017.9 |
| 20260507040009 | 59 | 79 | 1.0 | 6.0 | 0.00 | 0.03 | 0.03 | 72 | 1017.9 |
| 20260507035503 | 60 | 61 | 0.0 | 6.0 | 0.00 | 0.03 | 0.03 | 71 | 1018.0 |
| 20260507035003 | 60 | 72 | 0.0 | 5.0 | 0.00 | 0.03 | 0.03 | 72 | 1018.0 |
| 20260507034003 | 60 | 76 | 1.0 | 7.0 | 0.00 | 0.03 | 0.03 | 72 | 1018.1 |
| 20260507033503 | 60 | 53 | 0.0 | 7.0 | 0.00 | 0.03 | 0.03 | 71 | 1018.0 |
| 20260507032504 | 60 | 45 | 1.0 | 9.0 | 0.00 | 0.03 | 0.03 | 71 | 1017.9 |
| 20260507032003 | 60 | 63 | 1.0 | 8.0 | 0.00 | 0.03 | 0.03 | 71 | 1017.9 |
| 20260507031506 | 60 | 56 | 0.0 | 8.0 | 0.00 | 0.03 | 0.03 | 71 | 1018.0 |
| 20260507031003 | 60 | 57 | 1.0 | 9.0 | 0.00 | 0.03 | 0.03 | 71 | 1018.0 |
| 20260507030503 | 60 | 69 | 2.0 | 9.0 | 0.00 | 0.03 | 0.03 | 70 | 1017.7 |
| 20260507025002 | 60 | 66 | 2.0 | 10.0 | 0.00 | 0.03 | 0.03 | 71 | 1017.5 |
| 20260507024506 | 60 | 49 | 1.0 | 6.0 | 0.00 | 0.03 | 0.03 | 71 | 1017.4 |
| 20260507024002 | 60 | 53 | 1.0 | 10.0 | 0.00 | 0.03 | 0.03 | 71 | 1017.5 |
| 20260507023502 | 60 | 67 | 2.0 | 12.0 | 0.00 | 0.03 | 0.03 | 71 | 1017.3 |
| 20260507023005 | 61 | 61 | 1.0 | 12.0 | 0.00 | 0.03 | 0.03 | 71 | 1017.2 |
| 20260507022502 | 61 | 38 | 1.0 | 9.0 | 0.00 | 0.03 | 0.03 | 71 | 1017.1 |
| 20260507022003 | 61 | 60 | 1.0 | 17.0 | 0.00 | 0.03 | 0.03 | 71 | 1017.0 |
| 20260507021506 | 61 | 19 | 2.0 | 17.0 | 0.00 | 0.03 | 0.03 | 70 | 1017.0 |
| 20260507021002 | 61 | 57 | 2.0 | 7.0 | 0.00 | 0.03 | 0.03 | 71 | 1016.9 |
| 20260507020502 | 61 | 36 | 2.0 | 6.0 | 0.00 | 0.03 | 0.03 | 70 | 1016.9 |
| 20260507020009 | 61 | 64 | 2.0 | 12.0 | 0.00 | 0.03 | 0.03 | 71 | 1016.8 |
| 20260507015502 | 61 | 36 | 3.0 | 12.0 | 0.00 | 0.03 | 0.03 | 71 | 1016.6 |
| 20260507014505 | 62 | 21 | 3.0 | 9.0 | 0.00 | 0.03 | 0.03 | 71 | 1016.2 |
| 20260507014002 | 62 | 53 | 2.0 | 6.0 | 0.00 | 0.03 | 0.03 | 71 | 1016.0 |
| 20260507013503 | 62 | 23 | 1.0 | 5.0 | 0.00 | 0.03 | 0.03 | 72 | 1015.9 |
| 20260507013005 | 62 | 5 | 0.0 | 9.0 | 0.00 | 0.03 | 0.03 | 72 | 1015.8 |
| 20260507012503 | 62 | 21 | 3.0 | 9.0 | 0.00 | 0.03 | 0.03 | 72 | 1015.6 |
| 20260507011507 | 62 | 5 | 2.0 | 9.0 | 0.00 | 0.03 | 0.03 | 72 | 1015.5 |
| 20260507011004 | 62 | 34 | 1.0 | 11.0 | 0.00 | 0.03 | 0.03 | 71 | 1015.5 |
| 20260507010502 | 62 | 14 | 2.0 | 11.0 | 0.00 | 0.03 | 0.03 | 71 | 1015.3 |
| 20260507010008 | 62 | 49 | 1.0 | 9.0 | 0.00 | 0.03 | 0.03 | 72 | 1015.3 |
| 20260507005502 | 63 | 326 | 2.0 | 9.0 | 0.00 | 0.03 | 0.03 | 71 | 1015.3 |
| 20260507005002 | 63 | 337 | 1.0 | 7.0 | 0.00 | 0.03 | 0.03 | 71 | 1015.3 |
| 20260507004506 | 63 | 330 | 1.0 | 8.0 | 0.00 | 0.03 | 0.03 | 70 | 1015.2 |
| 20260507004002 | 63 | 37 | 2.0 | 6.0 | 0.00 | 0.03 | 0.03 | 71 | 1015.1 |
| 20260507003504 | 63 | 54 | 1.0 | 6.0 | 0.00 | 0.03 | 0.03 | 71 | 1015.1 |
| 20260507002502 | 63 | 37 | 1.0 | 8.0 | 0.00 | 0.03 | 0.03 | 70 | 1014.9 |
| 20260507002002 | 63 | 51 | 1.0 | 7.0 | 0.00 | 0.03 | 0.03 | 71 | 1014.9 |
| 20260507001506 | 63 | 51 | 1.0 | 7.0 | 0.00 | 0.03 | 0.03 | 70 | 1015.0 |
| 20260507001002 | 63 | 56 | 1.0 | 6.0 | 0.00 | 0.03 | 0.03 | 71 | 1014.8 |
| 20260507000006 | 63 | 51 | 1.0 | 7.0 | 0.00 | 0.03 | 0.03 | 70 | 1014.6 |
| 20260506235001 | 64 | 75 | 1.0 | 6.0 | 0.00 | 0.03 | 0.03 | 70 | 1014.6 |
| 20260506234504 | 64 | 48 | 1.0 | 5.0 | 0.00 | 0.03 | 0.03 | 70 | 1014.6 |
| 20260506233501 | 64 | 60 | 2.0 | 9.0 | 0.00 | 0.03 | 0.03 | 70 | 1014.5 |
| 20260506232501 | 64 | 5 | 3.0 | 9.0 | 0.00 | 0.03 | 0.03 | 70 | 1014.4 |
| 20260506232000 | 64 | 52 | 1.0 | 9.0 | 0.00 | 0.03 | 0.03 | 70 | 1014.4 |
| 20260506231507 | 64 | 25 | 2.0 | 9.0 | 0.00 | 0.03 | 0.03 | 70 | 1014.4 |
| 20260506231001 | 64 | 55 | 3.0 | 9.0 | 0.00 | 0.03 | 0.03 | 70 | 1014.4 |
| 20260506230502 | 64 | 41 | 1.0 | 10.0 | 0.00 | 0.03 | 0.03 | 70 | 1014.3 |
| 20260506225502 | 65 | 63 | 1.0 | 10.0 | 0.00 | 0.03 | 0.03 | 70 | 1014.1 |
| 20260506225002 | 65 | 57 | 0.0 | 5.0 | 0.00 | 0.03 | 0.03 | 70 | 1014.1 |
| 20260506224505 | 65 | 40 | 0.0 | 10.0 | 0.00 | 0.03 | 0.03 | 70 | 1014.2 |
| 20260506224002 | 65 | 37 | 2.0 | 10.0 | 0.00 | 0.03 | 0.03 | 68 | 1014.1 |
| 20260506223005 | 65 | 54 | 2.0 | 8.0 | 0.00 | 0.03 | 0.03 | 69 | 1013.9 |
| 20260506222503 | 65 | 31 | 0.0 | 6.0 | 0.00 | 0.03 | 0.03 | 70 | 1014.0 |
| 20260506221002 | 65 | 55 | 0.0 | 5.0 | 0.00 | 0.03 | 0.03 | 68 | 1014.1 |
| 20260506220502 | 65 | 44 | 1.0 | 5.0 | 0.00 | 0.03 | 0.03 | 68 | 1014.1 |
| 20260506220007 | 66 | 28 | 1.0 | 8.0 | 0.00 | 0.03 | 0.03 | 67 | 1014.0 |
| 20260506215501 | 66 | 342 | 1.0 | 9.0 | 0.00 | 0.03 | 0.03 | 68 | 1013.8 |
| 20260506215001 | 65 | 51 | 0.0 | 7.0 | 0.00 | 0.03 | 0.03 | 68 | 1013.8 |
| 20260506214504 | 66 | 17 | 2.0 | 8.0 | 0.00 | 0.03 | 0.03 | 68 | 1013.9 |
| 20260506214002 | 65 | 68 | 1.0 | 9.0 | 0.00 | 0.03 | 0.03 | 70 | 1013.8 |
| 20260506213501 | 65 | 47 | 3.0 | 9.0 | 0.00 | 0.03 | 0.03 | 67 | 1014.0 |
| 20260506213005 | 65 | 71 | 1.0 | 4.0 | 0.00 | 0.03 | 0.03 | 67 | 1014.1 |
| 20260506212501 | 64 | 9 | 0.0 | 6.0 | 0.00 | 0.03 | 0.03 | 70 | 1014.2 |
| 20260506212001 | 64 | 40 | 0.0 | 6.0 | 0.00 | 0.03 | 0.03 | 71 | 1014.4 |
| 20260506211504 | 63 | 9 | 0.0 | 5.0 | 0.00 | 0.03 | 0.03 | 69 | 1014.5 |
| 20260506211001 | 64 | 22 | 1.0 | 8.0 | 0.00 | 0.03 | 0.03 | 70 | 1014.4 |
| 20260506210501 | 64 | 72 | 0.0 | 8.0 | 0.00 | 0.03 | 0.03 | 70 | 1014.1 |
| 20260506210006 | 63 | 92 | 1.0 | 4.0 | 0.00 | 0.03 | 0.03 | 70 | 1013.9 |
| 20260506205501 | 63 | 67 | 0.0 | 4.0 | 0.00 | 0.03 | 0.03 | 70 | 1014.1 |
| 20260506205001 | 63 | 30 | 1.0 | 6.0 | 0.00 | 0.03 | 0.03 | 69 | 1014.2 |
| 20260506204504 | 64 | 44 | 0.0 | 6.0 | 0.00 | 0.03 | 0.03 | 67 | 1014.4 |
| 20260506204001 | 64 | 28 | 0.0 | 5.0 | 0.00 | 0.03 | 0.03 | 69 | 1014.3 |
| 20260506203501 | 64 | 25 | 1.0 | 5.0 | 0.00 | 0.03 | 0.03 | 67 | 1014.3 |
| 20260506203006 | 64 | 9 | 1.0 | 6.0 | 0.00 | 0.03 | 0.03 | 69 | 1014.3 |
| 20260506202502 | 64 | 17 | 1.0 | 6.0 | 0.00 | 0.03 | 0.03 | 69 | 1014.4 |
| 20260506202001 | 63 | 42 | 1.0 | 4.0 | 0.00 | 0.03 | 0.03 | 69 | 1014.6 |
| 20260506201504 | 63 | 51 | 1.0 | 7.0 | 0.00 | 0.03 | 0.03 | 69 | 1014.9 |
| 20260506201001 | 63 | 61 | 0.0 | 7.0 | 0.00 | 0.03 | 0.03 | 67 | 1014.8 |
| 20260506200501 | 64 | 63 | 1.0 | 5.0 | 0.00 | 0.03 | 0.03 | 66 | 1015.1 |
| 20260506200007 | 63 | 75 | 1.0 | 5.0 | 0.00 | 0.03 | 0.03 | 69 | 1015.2 |
| 20260506195501 | 63 | 52 | 1.0 | 5.0 | 0.00 | 0.03 | 0.03 | 70 | 1015.2 |
| 20260506195002 | 62 | 95 | 1.0 | 4.0 | 0.00 | 0.03 | 0.03 | 68 | 1015.3 |
| 20260506194504 | 62 | 72 | 1.0 | 4.0 | 0.00 | 0.03 | 0.03 | 69 | 1015.3 |
| 20260506193005 | 60 | 71 | 0.0 | 6.0 | 0.00 | 0.03 | 0.03 | 72 | 1015.4 |
| 20260506192501 | 60 | 51 | 1.0 | 6.0 | 0.00 | 0.03 | 0.03 | 73 | 1015.5 |
| 20260506192001 | 60 | 69 | 0.0 | 4.0 | 0.00 | 0.03 | 0.03 | 72 | 1015.4 |
| 20260506191506 | 60 | 55 | 1.0 | 6.0 | 0.00 | 0.03 | 0.03 | 72 | 1015.5 |
| 20260506191001 | 60 | 360 | 1.0 | 9.0 | 0.00 | 0.03 | 0.03 | 72 | 1015.5 |
| 20260506190007 | 60 | 63 | 1.0 | 6.0 | 0.00 | 0.03 | 0.03 | 73 | 1015.3 |
| 20260506185501 | 60 | 360 | 2.0 | 9.0 | 0.00 | 0.03 | 0.03 | 73 | 1015.0 |
| 20260506185001 | 59 | 43 | 3.0 | 11.0 | 0.00 | 0.03 | 0.03 | 73 | 1014.6 |
| 20260506184001 | 59 | 323 | 1.0 | 14.0 | 0.00 | 0.03 | 0.03 | 75 | 1014.4 |
| 20260506183501 | 60 | 322 | 3.0 | 12.0 | 0.00 | 0.03 | 0.03 | 73 | 1014.4 |
| 20260506183005 | 60 | 347 | 3.0 | 10.0 | 0.00 | 0.03 | 0.03 | 73 | 1014.2 |
| 20260506181504 | 59 | 360 | 1.0 | 9.0 | 0.00 | 0.03 | 0.03 | 75 | 1014.7 |
| 20260506180501 | 57 | 348 | 3.0 | 11.0 | 0.00 | 0.03 | 0.03 | 77 | 1014.7 |
| 20260506180007 | 57 | 5 | 3.0 | 11.0 | 0.00 | 0.03 | 0.03 | 78 | 1014.9 |
| 20260506175501 | 56 | 9 | 1.0 | 9.0 | 0.00 | 0.03 | 0.03 | 79 | 1014.8 |
| 20260506175000 | 56 | 333 | 3.0 | 9.0 | 0.00 | 0.03 | 0.03 | 78 | 1014.7 |
| 20260506174505 | 56 | 34 | 2.0 | 11.0 | 0.00 | 0.03 | 0.03 | 79 | 1014.6 |
| 20260506173501 | 56 | 80 | 1.0 | 10.0 | 0.00 | 0.03 | 0.03 | 81 | 1014.5 |
| 20260506173006 | 56 | 39 | 0.0 | 9.0 | 0.00 | 0.03 | 0.03 | 80 | 1014.6 |
| 20260506172501 | 55 | 25 | 2.0 | 10.0 | 0.00 | 0.03 | 0.03 | 79 | 1014.7 |
| 20260506172001 | 55 | 19 | 2.0 | 11.0 | 0.00 | 0.03 | 0.03 | 80 | 1014.9 |
| 20260506171506 | 55 | 18 | 2.0 | 12.0 | 0.00 | 0.03 | 0.03 | 81 | 1015.0 |
| 20260506171001 | 55 | 37 | 3.0 | 12.0 | 0.00 | 0.03 | 0.03 | 82 | 1015.0 |
| 20260506170501 | 55 | 32 | 1.0 | 9.0 | 0.00 | 0.03 | 0.03 | 82 | 1015.4 |
| 20260506170005 | 55 | 29 | 1.0 | 9.0 | 0.00 | 0.03 | 0.03 | 81 | 1015.5 |
| 20260506165000 | 55 | 68 | 2.0 | 7.0 | 0.00 | 0.03 | 0.03 | 83 | 1015.5 |
| 20260506164000 | 55 | 78 | 1.0 | 4.0 | 0.00 | 0.03 | 0.03 | 84 | 1015.6 |
| 20260506163500 | 55 | 61 | 1.0 | 5.0 | 0.00 | 0.03 | 0.03 | 84 | 1015.8 |
| 20260506163004 | 55 | 78 | 1.0 | 9.0 | 0.01 | 0.03 | 0.03 | 85 | 1015.7 |
| 20260506162500 | 54 | 68 | 2.0 | 9.0 | 0.01 | 0.03 | 0.03 | 86 | 1015.2 |
| 20260506162000 | 54 | 5 | 3.0 | 10.0 | 0.01 | 0.03 | 0.03 | 85 | 1014.8 |
| 20260506161504 | 54 | 347 | 3.0 | 10.0 | 0.02 | 0.03 | 0.03 | 85 | 1015.1 |
| 20260506161000 | 54 | 360 | 2.0 | 9.0 | 0.03 | 0.03 | 0.03 | 86 | 1015.4 |
| 20260506160459 | 55 | 24 | 2.0 | 6.0 | 0.03 | 0.03 | 0.03 | 87 | 1015.3 |
| 20260506160006 | 55 | 9 | 1.0 | 5.0 | 0.03 | 0.03 | 0.03 | 87 | 1015.3 |
| 20260506155500 | 55 | 10 | 1.0 | 7.0 | 0.03 | 0.03 | 0.03 | 87 | 1014.9 |
| 20260506155000 | 54 | 32 | 1.0 | 7.0 | 0.03 | 0.03 | 0.03 | 87 | 1015.0 |
| 20260506154504 | 54 | 36 | 1.0 | 9.0 | 0.03 | 0.03 | 0.03 | 88 | 1014.4 |
| 20260506154000 | 54 | 351 | 1.0 | 4.0 | 0.03 | 0.03 | 0.03 | 88 | 1014.6 |
| 20260506153500 | 54 | 319 | 0.0 | 1.0 | 0.03 | 0.03 | 0.03 | 87 | 1015.8 |
| 20260506152501 | 54 | 319 | 0.0 | 5.0 | 0.02 | 0.02 | 0.02 | 85 | 1016.9 |
| 20260506151959 | 54 | 319 | 0.0 | 5.0 | 0.02 | 0.02 | 0.02 | 85 | 1017.0 |
| 20260506151504 | 54 | 329 | 0.0 | 1.0 | 0.01 | 0.01 | 0.01 | 85 | 1016.4 |
| 20260506150959 | 54 | 326 | 0.0 | 5.0 | 0.00 | 0.00 | 0.00 | 83 | 1016.6 |
| 20260506150501 | 54 | 327 | 0.0 | 5.0 | 0.00 | 0.00 | 0.00 | 82 | 1016.3 |
| 20260506150005 | 54 | 9 | 0.0 | 5.0 | 0.00 | 0.00 | 0.00 | 82 | 1016.3 |
| 20260506145459 | 54 | 322 | 0.0 | 5.0 | 0.00 | 0.00 | 0.00 | 82 | 1015.8 |
| 20260506145000 | 54 | 310 | 0.0 | 5.0 | 0.00 | 0.00 | 0.00 | 82 | 1015.6 |
| 20260506144503 | 54 | 67 | 0.0 | 10.0 | 0.00 | 0.00 | 0.00 | 82 | 1015.0 |
| 20260506144000 | 54 | 24 | 2.0 | 10.0 | 0.00 | 0.00 | 0.00 | 81 | 1014.5 |
| 20260506143459 | 54 | 24 | 1.0 | 6.0 | 0.00 | 0.00 | 0.00 | 81 | 1015.0 |
| 20260506143003 | 54 | 37 | 0.0 | 4.0 | 0.00 | 0.00 | 0.00 | 80 | 1015.8 |
| 20260506142459 | 54 | 346 | 0.0 | 9.0 | 0.00 | 0.00 | 0.00 | 79 | 1015.7 |
| 20260506141959 | 54 | 360 | 2.0 | 9.0 | 0.00 | 0.00 | 0.00 | 79 | 1015.7 |
| 20260506141503 | 54 | 5 | 1.0 | 9.0 | 0.00 | 0.00 | 0.00 | 79 | 1015.5 |
| 20260506140005 | 54 | 11 | 0.0 | 9.0 | 0.00 | 0.00 | 0.00 | 80 | 1015.3 |
| 20260506135459 | 54 | 360 | 2.0 | 10.0 | 0.00 | 0.00 | 0.00 | 79 | 1014.8 |
| 20260506135000 | 54 | 58 | 1.0 | 10.0 | 0.00 | 0.00 | 0.00 | 80 | 1014.7 |
| 20260506134504 | 54 | 5 | 2.0 | 10.0 | 0.00 | 0.00 | 0.00 | 80 | 1014.4 |
| 20260506134000 | 54 | 28 | 1.0 | 8.0 | 0.00 | 0.00 | 0.00 | 80 | 1014.4 |
| 20260506133500 | 54 | 61 | 1.0 | 6.0 | 0.00 | 0.00 | 0.00 | 81 | 1014.4 |
| 20260506133003 | 54 | 22 | 1.0 | 8.0 | 0.00 | 0.00 | 0.00 | 81 | 1014.4 |
| 20260506132459 | 54 | 11 | 1.0 | 8.0 | 0.00 | 0.00 | 0.00 | 80 | 1014.4 |
| 20260506131959 | 54 | 307 | 2.0 | 10.0 | 0.00 | 0.00 | 0.00 | 80 | 1014.4 |
| 20260506131503 | 54 | 360 | 1.0 | 10.0 | 0.00 | 0.00 | 0.00 | 80 | 1014.2 |
| 20260506131001 | 54 | 28 | 1.0 | 6.0 | 0.00 | 0.00 | 0.00 | 80 | 1014.1 |
| 20260506130459 | 54 | 314 | 2.0 | 6.0 | 0.00 | 0.00 | 0.00 | 80 | 1014.0 |
| 20260506130005 | 54 | 34 | 1.0 | 11.0 | 0.00 | 0.00 | 0.00 | 81 | 1014.1 |
| 20260506125459 | 53 | 46 | 1.0 | 8.0 | 0.00 | 0.00 | 0.00 | 81 | 1013.8 |
| 20260506124959 | 53 | 39 | 1.0 | 8.0 | 0.00 | 0.00 | 0.00 | 81 | 1014.0 |
| 20260506124503 | 53 | 355 | 1.0 | 9.0 | 0.00 | 0.00 | 0.00 | 80 | 1013.9 |
| 20260506123959 | 53 | 341 | 2.0 | 9.0 | 0.00 | 0.00 | 0.00 | 80 | 1014.0 |
| 20260506123459 | 53 | 41 | 2.0 | 9.0 | 0.00 | 0.00 | 0.00 | 80 | 1013.9 |
| 20260506123003 | 54 | 345 | 0.0 | 9.0 | 0.00 | 0.00 | 0.00 | 83 | 1013.8 |
| 20260506122500 | 54 | 322 | 1.0 | 9.0 | 0.00 | 0.00 | 0.00 | 80 | 1013.9 |
| 20260506122000 | 53 | 360 | 2.0 | 6.0 | 0.00 | 0.00 | 0.00 | 80 | 1013.7 |
| 20260506121503 | 54 | 11 | 2.0 | 12.0 | 0.00 | 0.00 | 0.00 | 79 | 1013.7 |
| 20260506121000 | 54 | 340 | 1.0 | 12.0 | 0.00 | 0.00 | 0.00 | 79 | 1013.8 |
| 20260506120005 | 54 | 314 | 1.0 | 11.0 | 0.00 | 0.00 | 0.00 | 79 | 1013.6 |
| 20260506115500 | 54 | 10 | 2.0 | 11.0 | 0.00 | 0.00 | 0.00 | 78 | 1013.5 |
| 20260506114959 | 54 | 336 | 1.0 | 10.0 | 0.00 | 0.00 | 0.00 | 78 | 1013.4 |
| 20260506113959 | 54 | 346 | 3.0 | 11.0 | 0.00 | 0.00 | 0.00 | 76 | 1013.3 |
| 20260506113500 | 55 | 329 | 3.0 | 11.0 | 0.00 | 0.00 | 0.00 | 75 | 1013.2 |
| 20260506113003 | 55 | 331 | 0.0 | 9.0 | 0.00 | 0.00 | 0.00 | 75 | 1012.8 |
| 20260506112000 | 55 | 339 | 2.0 | 10.0 | 0.00 | 0.00 | 0.00 | 74 | 1012.7 |
| 20260506111503 | 55 | 56 | 1.0 | 11.0 | 0.00 | 0.00 | 0.00 | 74 | 1012.7 |
| 20260506110500 | 56 | 44 | 3.0 | 12.0 | 0.00 | 0.00 | 0.00 | 74 | 1012.7 |
| 20260506110005 | 56 | 360 | 2.0 | 12.0 | 0.00 | 0.00 | 0.00 | 74 | 1012.6 |
| 20260506105459 | 56 | 355 | 2.0 | 9.0 | 0.00 | 0.00 | 0.00 | 74 | 1012.4 |
| 20260506104000 | 56 | 18 | 1.0 | 9.0 | 0.00 | 0.00 | 0.00 | 73 | 1012.4 |
| 20260506103459 | 56 | 345 | 1.0 | 10.0 | 0.00 | 0.00 | 0.00 | 73 | 1012.2 |
| 20260506103002 | 56 | 326 | 4.0 | 10.0 | 0.00 | 0.00 | 0.00 | 73 | 1012.2 |
| 20260506102459 | 56 | 50 | 1.0 | 9.0 | 0.00 | 0.00 | 0.00 | 73 | 1012.1 |
| 20260506101503 | 56 | 348 | 2.0 | 10.0 | 0.00 | 0.00 | 0.00 | 73 | 1011.9 |
| 20260506100959 | 57 | 348 | 2.0 | 9.0 | 0.00 | 0.00 | 0.00 | 73 | 1011.9 |
| 20260506100459 | 57 | 63 | 2.0 | 10.0 | 0.00 | 0.00 | 0.00 | 73 | 1011.8 |
| 20260506100005 | 57 | 72 | 3.0 | 10.0 | 0.00 | 0.00 | 0.00 | 72 | 1011.6 |
| 20260506095459 | 57 | 40 | 1.0 | 10.0 | 0.00 | 0.00 | 0.00 | 72 | 1011.6 |
| 20260506095000 | 57 | 38 | 2.0 | 8.0 | 0.00 | 0.00 | 0.00 | 72 | 1011.5 |
| 20260506094504 | 57 | 9 | 1.0 | 6.0 | 0.00 | 0.00 | 0.00 | 72 | 1011.4 |
| 20260506093959 | 57 | 350 | 2.0 | 6.0 | 0.00 | 0.00 | 0.00 | 72 | 1011.6 |
| 20260506093002 | 57 | 355 | 0.0 | 11.0 | 0.00 | 0.00 | 0.00 | 72 | 1011.3 |
| 20260506092459 | 57 | 41 | 1.0 | 10.0 | 0.00 | 0.00 | 0.00 | 72 | 1011.2 |
| 20260506091959 | 57 | 22 | 1.0 | 9.0 | 0.00 | 0.00 | 0.00 | 72 | 1011.2 |
| 20260506091502 | 57 | 57 | 1.0 | 9.0 | 0.00 | 0.00 | 0.00 | 72 | 1011.3 |
| 20260506090959 | 57 | 5 | 1.0 | 9.0 | 0.00 | 0.00 | 0.00 | 72 | 1011.2 |
| 20260506090459 | 57 | 18 | 2.0 | 8.0 | 0.00 | 0.00 | 0.00 | 73 | 1011.1 |
| 20260506085459 | 57 | 332 | 2.0 | 10.0 | 0.00 | 0.00 | 0.00 | 73 | 1011.0 |
| 20260506084958 | 58 | 5 | 2.0 | 10.0 | 0.00 | 0.00 | 0.00 | 73 | 1010.9 |
| 20260506083958 | 58 | 360 | 1.0 | 8.0 | 0.00 | 0.00 | 0.00 | 74 | 1010.9 |
| 20260506083457 | 58 | 309 | 1.0 | 8.0 | 0.00 | 0.00 | 0.00 | 74 | 1011.0 |